GW2438 Weather Reports


time (UTC)temp
C
wind
direction
speed
KPH
gust
KPH
rain 1hr
cm
rain 24hr
cm
rain mn
cm
humidity
%
barometer
mb
20260510155556 13 239 3.2 9.7 0.00 0.00 0.00 82 1018.2
20260510154554 13 243 3.2 4.8 0.00 0.00 0.00 82 1018.2
20260510153552 12 236 1.6 4.8 0.00 0.00 0.00 82 1017.8
20260510152531 13 275 1.6 6.4 0.00 0.00 0.00 83 1018.1
20260510151529 12 231 3.2 9.7 0.00 0.00 0.00 84 1018.1
20260510150527 12 239 1.6 3.2 0.00 0.00 0.00 84 1017.8
20260510145526 12 233 3.2 6.4 0.00 0.00 0.00 87 1018.0
20260510144524 11 284 1.6 4.8 0.00 0.00 0.00 86 1017.8
20260510143522 11 15 0.0 1.6 0.00 0.00 0.00 87 1017.7
20260510142520 11 249 1.6 4.8 0.00 0.00 0.00 88 1018.1
20260510141518 11 227 3.2 9.7 0.00 0.00 0.00 89 1018.3
20260510140517 11 247 3.2 6.4 0.00 0.00 0.00 89 1018.0
20260510135615 10 248 0.0 3.2 0.00 0.00 0.00 90 1017.3
20260510134613 10 248 0.0 1.6 0.00 0.00 0.00 90 1017.0
20260510133612 10 248 0.0 1.6 0.00 0.00 0.00 90 1017.3
20260510132610 10 0.0 0.0 0.00 0.00 0.00 90 1017.5
20260510131609 10 248 0.0 1.6 0.00 0.00 0.00 90 1017.9
20260510130627 9 0.0 0.0 0.00 0.00 0.00 90 1017.9
20260510125645 9 0.0 0.0 0.00 0.00 0.00 89 1018.0
20260510124704 9 0.0 0.0 0.00 0.00 0.00 89 1018.0
20260510123602 8 234 1.6 3.2 0.00 0.00 0.00 88 1018.0
20260510122641 9 233 0.0 1.6 0.00 0.00 0.00 88 1017.9
20260510121559 9 257 0.0 1.6 0.00 0.00 0.00 88 1017.7
20260510120557 9 0.0 0.0 0.00 0.00 0.00 87 1017.6
20260510115555 9 265 0.0 1.6 0.00 0.00 0.00 87 1017.5
20260510114553 9 0.0 0.0 0.00 0.00 0.00 87 1017.4
20260510113551 9 0.0 0.0 0.00 0.00 0.00 87 1017.4
20260510112549 9 0.0 0.0 0.00 0.00 0.00 86 1017.6
20260510111548 9 282 0.0 1.6 0.00 0.00 0.00 85 1017.8
20260510110546 10 0.0 0.0 0.00 0.00 0.00 85 1017.6
20260510105544 10 0.0 0.0 0.00 0.00 0.00 84 1017.5
20260510104543 10 0.0 0.0 0.00 0.00 0.00 84 1017.2
20260510103541 10 0.0 0.0 0.00 0.00 0.00 84 1017.1
20260510102559 10 282 0.0 1.6 0.00 0.00 0.00 84 1016.9
20260510101537 11 283 0.0 1.6 0.00 0.00 0.00 83 1016.9
20260510100536 11 253 0.0 1.6 0.00 0.00 0.00 83 1016.9
20260510095534 11 276 0.0 3.2 0.00 0.00 0.00 84 1016.9
20260510094533 11 285 0.0 1.6 0.00 0.00 0.00 84 1016.8
20260510093530 10 285 0.0 1.6 0.00 0.00 0.00 83 1016.6
20260510092529 10 0.0 0.0 0.00 0.00 0.00 82 1016.5
20260510091548 10 0.0 0.0 0.00 0.00 0.00 83 1016.5
20260510090526 10 285 0.0 1.6 0.00 0.00 0.00 83 1016.4
20260510085524 10 0.0 0.0 0.00 0.00 0.00 82 1016.5
20260510084522 10 285 0.0 1.6 0.00 0.00 0.00 82 1016.4
20260510083520 10 318 0.0 1.6 0.00 0.00 0.00 81 1016.4
20260510082518 10 318 0.0 1.6 0.00 0.00 0.00 81 1016.3
20260510081518 11 0.0 0.0 0.00 0.00 0.00 80 1016.1
20260510080615 11 0.0 0.0 0.00 0.00 0.00 79 1016.2
20260510075614 11 0.0 0.0 0.00 0.00 0.00 79 1016.3
20260510074612 11 0.0 0.0 0.00 0.00 0.00 79 1016.2
20260510073610 11 0.0 0.0 0.00 0.00 0.00 77 1016.1
20260510072608 11 0.0 0.0 0.00 0.00 0.00 77 1016.1
20260510071608 12 0.0 0.0 0.00 0.00 0.00 75 1016.0
20260510070625 12 0.0 0.0 0.00 0.00 0.00 75 1016.3
20260510065603 12 0.0 0.0 0.00 0.00 0.00 74 1016.2
20260510064601 12 0.0 0.0 0.00 0.00 0.00 73 1016.3
20260510063559 13 0.0 0.0 0.00 0.00 0.00 72 1016.3
20260510062558 13 0.0 0.0 0.00 0.00 0.00 72 1016.3
20260510061556 13 0.0 0.0 0.00 0.00 0.00 71 1016.4
20260510060555 14 0.0 0.0 0.00 0.00 0.00 70 1016.3
20260510055553 14 0.0 0.0 0.00 0.00 0.00 69 1016.1
20260510054551 15 320 0.0 1.6 0.00 0.00 0.00 69 1016.3
20260510053549 15 320 0.0 1.6 0.00 0.00 0.00 68 1016.2
20260510052608 15 320 0.0 1.6 0.00 0.00 0.00 68 1016.3
20260510051546 15 0.0 0.0 0.00 0.00 0.00 68 1016.2
20260510050544 15 336 0.0 1.6 0.00 0.00 0.00 68 1016.1
20260510045542 15 0.0 0.0 0.00 0.00 0.00 68 1016.1
20260510044540 15 0.0 0.0 0.00 0.00 0.00 67 1016.2
20260510043539 15 337 0.0 1.6 0.00 0.00 0.00 66 1016.2
20260510042537 15 0.0 0.0 0.00 0.00 0.00 65 1016.2
20260510041535 16 307 0.0 3.2 0.00 0.00 0.00 65 1016.2
20260510040554 16 328 0.0 3.2 0.00 0.00 0.00 64 1016.1
20260510035532 16 349 1.6 3.2 0.00 0.00 0.00 64 1016.0
20260510034530 16 340 1.6 3.2 0.00 0.00 0.00 62 1015.9
20260510033529 16 348 1.6 4.8 0.00 0.00 0.00 62 1016.0
20260510032527 17 348 3.2 6.4 0.00 0.00 0.00 60 1015.9
20260510031525 17 353 1.6 4.8 0.00 0.00 0.00 59 1016.0
20260510030524 17 352 3.2 4.8 0.00 0.00 0.00 58 1016.0
20260510025522 17 328 1.6 3.2 0.00 0.00 0.00 57 1016.1
20260510024520 18 328 1.6 1.6 0.00 0.00 0.00 55 1016.1
20260510023519 18 326 1.6 3.2 0.00 0.00 0.00 54 1016.3
20260510022517 18 8 3.2 4.8 0.00 0.00 0.00 53 1016.4
20260510021615 18 343 3.2 6.4 0.00 0.00 0.00 52 1016.4
20260510020613 19 348 0.0 1.6 0.00 0.00 0.00 51 1016.4
20260510015612 19 347 3.2 4.8 0.00 0.00 0.00 49 1016.6
20260510014610 19 345 3.2 4.8 0.00 0.00 0.00 48 1016.6
20260510013608 20 350 1.6 4.8 0.00 0.00 0.00 51 1017.0
20260510012607 20 308 1.6 4.8 0.00 0.00 0.00 49 1017.1
20260510011626 20 6 1.6 4.8 0.00 0.00 0.00 50 1017.2
20260510010623 20 359 3.2 9.7 0.00 0.00 0.00 50 1017.3
20260510005622 20 330 1.6 6.4 0.00 0.00 0.00 50 1017.3
20260510004600 20 349 1.6 4.8 0.00 0.00 0.00 50 1017.2
20260510003558 20 7 1.6 4.8 0.00 0.00 0.00 50 1017.6
20260510002622 20 2 1.6 4.8 0.00 0.00 0.00 51 1017.6
20260510001555 20 16 4.8 6.4 0.00 0.00 0.00 51 1017.6
20260510000553 20 347 3.2 6.4 0.00 0.00 0.00 51 1017.8
20260509235552 20 8 4.8 11.3 0.00 0.00 0.00 51 1017.8
20260509234549 20 309 1.6 4.8 0.00 0.00 0.00 53 1018.1
20260509233547 20 343 1.6 4.8 0.00 0.00 0.00 53 1018.1
20260509232546 20 4 1.6 4.8 0.00 0.00 0.00 55 1018.1
20260509231544 20 5 3.2 9.7 0.00 0.00 0.00 54 1018.3
20260509230543 20 344 4.8 9.7 0.00 0.00 0.00 54 1018.3
20260509225541 20 6 4.8 11.3 0.00 0.00 0.00 55 1018.6
20260509224539 20 355 3.2 11.3 0.00 0.00 0.00 55 1018.8
20260509223538 20 354 6.4 11.3 0.00 0.00 0.00 54 1018.8
20260509222536 20 319 3.2 9.7 0.00 0.00 0.00 55 1019.2
20260509221534 20 12 4.8 11.3 0.00 0.00 0.00 52 1019.0
20260509220532 20 336 1.6 9.7 0.00 0.00 0.00 54 1019.3
20260509215530 20 359 4.8 11.3 0.00 0.00 0.00 52 1019.2
20260509214549 20 6 4.8 12.9 0.00 0.00 0.00 51 1019.2
20260509213527 20 6 3.2 9.7 0.00 0.00 0.00 51 1019.2
20260509212546 20 354 1.6 6.4 0.00 0.00 0.00 51 1019.6
20260509211524 20 30 3.2 6.4 0.00 0.00 0.00 53 1019.4
20260509210522 20 4 6.4 12.9 0.00 0.00 0.00 53 1019.5
20260509205521 20 341 3.2 11.3 0.00 0.00 0.00 55 1019.5
20260509204519 20 357 3.2 9.7 0.00 0.00 0.00 54 1019.7
20260509203537 19 315 1.6 3.2 0.00 0.00 0.00 56 1019.7
20260509202615 18 324 3.2 6.4 0.00 0.00 0.00 56 1019.8
20260509201614 18 354 3.2 9.7 0.00 0.00 0.00 57 1019.9
20260509200612 18 337 3.2 9.7 0.00 0.00 0.00 57 1020.0
20260509195610 18 3 3.2 12.9 0.00 0.00 0.00 60 1020.2
20260509194629 18 356 4.8 12.9 0.00 0.00 0.00 59 1020.4
20260509193607 18 345 3.2 6.4 0.00 0.00 0.00 60 1020.5
20260509192625 17 357 4.8 11.3 0.00 0.00 0.00 60 1020.6
20260509191603 17 20 4.8 14.5 0.00 0.00 0.00 61 1020.7
20260509190601 17 346 4.8 9.7 0.00 0.00 0.00 61 1020.8
20260509185619 17 2 6.4 9.7 0.00 0.00 0.00 61 1020.9
20260509184618 17 351 6.4 12.9 0.00 0.00 0.00 62 1020.9
20260509183556 16 359 6.4 11.3 0.00 0.00 0.00 66 1020.9
20260509182554 16 8 6.4 14.5 0.00 0.00 0.00 66 1020.9
20260509181612 16 1 8.0 12.9 0.00 0.00 0.00 66 1020.9
20260509180611 16 2 6.4 12.9 0.00 0.00 0.00 68 1021.0
20260509175608 16 340 1.6 6.4 0.00 0.00 0.00 69 1021.1
20260509174547 16 10 6.4 11.3 0.00 0.00 0.00 70 1021.2
20260509173545 16 1 4.8 9.7 0.00 0.00 0.00 69 1021.2
20260509172604 16 10 4.8 9.7 0.00 0.00 0.00 70 1021.3
20260509171622 15 345 3.2 4.8 0.00 0.00 0.00 70 1021.3
20260509170540 15 15 1.6 4.8 0.00 0.00 0.00 72 1021.3
20260509165538 15 5 4.8 9.7 0.00 0.00 0.00 74 1021.3
20260509164537 15 355 4.8 11.3 0.00 0.00 0.00 72 1021.5
20260509163535 15 4 4.8 9.7 0.00 0.00 0.00 72 1021.7
20260509162533 15 11 3.2 12.9 0.00 0.00 0.00 71 1021.6
20260509161551 16 21 1.6 4.8 0.00 0.00 0.00 70 1021.7
20260509160550 15 35 1.6 3.2 0.00 0.00 0.00 70 1021.7